Location: Moscow
(55.7500°N, 37.5830°E)
Time: 07:58:09
(UTC+03:00)

N. Korean satellite - Pass Details

Date: 29 October 2021
Orbit: 446 x 495 km, 97.3° (Epoch: 04 December)

Event Time Altitude Azimuth Distance (km) Brightness Sun altitude
Rises 06:08:36 0° 13° (NNE) 2,600 10.4 -11.8°
Reaches altitude 10° 06:10:42 10° 12° (NNE) 1,709 9.4 -11.5°
Maximum altitude 06:14:23 81° 286° (WNW) 507 6.5 -11.0°
Drops below altitude 10° 06:18:00 10° 200° (SSW) 1,676 9.2 -10.5°
Sets 06:20:02 0° 199° (SSW) 2,544 10.1 -10.2°
